Back to catalog

STARLINK-32156

AliveCommunicationsVLEO
NORAD 60278·PAYLOAD·🇺🇸 United States

Launched Jul 28, 2024 from Cape Canaveral Space Force Station

Loading…

Next Passes (next 24 hours)

TLE

FreshSource: CelesTrak SupGP

Epoch: Sep 14, 2026, 22:25 UTC

1 60278C 24132A   26257.93451389  .00044230  00000+0  13068-2 0  2578
2 60278  53.1572 251.9569 0001281  88.9833 323.5747 15.34367637    13

Track STARLINK-32156 in real time with AllMySat

Download on the App Store